Location: Unspecified
(49.9820°N, 20.4363°E)
Time: 00:50:41
(UTC+02:00)

ISS - Pass Details

Date: 19 July 2018
Orbit: 402 x 408 km, 51.6° (Epoch: 16 July)

Event Time Altitude Azimuth Distance (km) Brightness Sun altitude
Rises 23:02:09 0° 238° (WSW) 2,316 -0.1 -15.7°
Reaches altitude 10° 23:04:14 10° 234° (SW) 1,460 -1.1 -15.9°
Maximum altitude 23:07:27 56° 155° (SSE) 487 -3.8 -16.1°
Drops below altitude 10° 23:10:41 10° 76° (ENE) 1,468 -1.1 -16.3°
Sets 23:12:48 0° 73° (ENE) 2,332 0.0 -16.4°
